| time (UTC) | temp F | wind direction | speed knots | gust knots | rain 1hr in | rain 24hr in | rain mn in | humidity % | barometer mb |
| 20260507145008 | 56 | 130 | 3.5 | 10.4 | 0.00 | 0.24 | 0.13 | 60 | 1005.4 |
| 20260507144719 | 55 | 87 | 4.3 | 10.4 | 0.00 | 0.24 | 0.13 | 64 | 1005.5 |
| 20260507144521 | 56 | 167 | 4.3 | 10.4 | 0.00 | 0.24 | 0.13 | 63 | 1005.5 |
| 20260507143710 | 55 | 115 | 4.3 | 10.4 | 0.00 | 0.24 | 0.13 | 68 | 1005.6 |
| 20260507143453 | 55 | 78 | 3.5 | 10.4 | 0.00 | 0.24 | 0.13 | 65 | 1005.6 |
| 20260507142448 | 55 | 116 | 4.3 | 10.4 | 0.00 | 0.24 | 0.13 | 66 | 1005.7 |
| 20260507141942 | 55 | 82 | 3.5 | 9.6 | 0.00 | 0.24 | 0.13 | 68 | 1005.8 |
| 20260507141658 | 55 | 76 | 3.5 | 7.8 | 0.00 | 0.24 | 0.13 | 68 | 1005.7 |
| 20260507140936 | 55 | 59 | 3.5 | 7.8 | 0.00 | 0.24 | 0.13 | 69 | 1005.7 |
| 20260507140438 | 54 | 51 | 2.6 | 9.6 | 0.00 | 0.24 | 0.13 | 70 | 1005.7 |
| 20260507135932 | 54 | 74 | 2.6 | 9.6 | 0.00 | 0.24 | 0.13 | 71 | 1005.7 |
| 20260507135437 | 54 | 353 | 2.6 | 9.6 | 0.00 | 0.24 | 0.13 | 72 | 1005.6 |
| 20260507134943 | 54 | 27 | 3.5 | 9.6 | 0.00 | 0.24 | 0.13 | 72 | 1005.6 |
| 20260507134440 | 54 | 92 | 3.5 | 8.7 | 0.00 | 0.24 | 0.13 | 74 | 1005.6 |
| 20260507133938 | 53 | 352 | 2.6 | 8.7 | 0.00 | 0.24 | 0.13 | 75 | 1005.6 |
| 20260507133913 | 53 | 82 | 2.6 | 8.7 | 0.00 | 0.24 | 0.13 | 75 | 1005.7 |
| 20260507132922 | 53 | 32 | 2.6 | 7.0 | 0.00 | 0.24 | 0.13 | 77 | 1005.7 |
| 20260507132419 | 52 | 258 | 2.6 | 12.2 | 0.00 | 0.24 | 0.13 | 78 | 1005.7 |
| 20260507131955 | 52 | 9 | 2.6 | 12.2 | 0.00 | 0.24 | 0.13 | 79 | 1005.8 |
| 20260507131632 | 51 | 71 | 4.3 | 12.2 | 0.00 | 0.24 | 0.13 | 79 | 1005.7 |
| 20260507131153 | 51 | 75 | 3.5 | 11.3 | 0.00 | 0.24 | 0.13 | 83 | 1005.8 |
| 20260507130951 | 51 | 57 | 4.3 | 12.2 | 0.00 | 0.24 | 0.13 | 80 | 1005.8 |
| 20260507125923 | 50 | 33 | 2.6 | 9.6 | 0.00 | 0.24 | 0.13 | 86 | 1005.8 |
| 20260507125426 | 50 | 82 | 2.6 | 9.6 | 0.00 | 0.24 | 0.13 | 88 | 1005.8 |
| 20260507124924 | 50 | 128 | 2.6 | 9.6 | 0.00 | 0.24 | 0.13 | 91 | 1005.9 |
| 20260507124420 | 49 | 70 | 2.6 | 9.6 | 0.00 | 0.24 | 0.13 | 92 | 1005.8 |
| 20260507123919 | 49 | 92 | 1.7 | 7.8 | 0.00 | 0.24 | 0.13 | 92 | 1005.8 |
| 20260507123443 | 49 | 82 | 2.6 | 7.8 | 0.00 | 0.24 | 0.13 | 92 | 1005.9 |
| 20260507122933 | 49 | 2 | 0.9 | 4.3 | 0.00 | 0.24 | 0.13 | 93 | 1005.9 |
| 20260507122404 | 49 | 104 | 0.9 | 3.5 | 0.00 | 0.24 | 0.13 | 94 | 1005.9 |
| 20260507122132 | 48 | 82 | 0.9 | 5.2 | 0.00 | 0.24 | 0.13 | 93 | 1006.0 |
| 20260507121611 | 48 | 87 | 1.7 | 5.2 | 0.00 | 0.24 | 0.13 | 93 | 1006.0 |
| 20260507121350 | 48 | 87 | 1.7 | 5.2 | 0.00 | 0.24 | 0.13 | 93 | 1006.0 |
| 20260507120851 | 48 | 58 | 1.7 | 5.2 | 0.00 | 0.24 | 0.13 | 93 | 1005.9 |
| 20260507120356 | 48 | 71 | 0.9 | 5.2 | 0.00 | 0.24 | 0.13 | 93 | 1005.9 |
| 20260507120139 | 48 | 50 | 0.9 | 3.5 | 0.00 | 0.24 | 0.13 | 94 | 1005.8 |
| 20260507115337 | 48 | 54 | 0.9 | 3.5 | 0.00 | 0.24 | 0.13 | 94 | 1005.8 |
| 20260507115100 | 48 | 52 | 1.7 | 4.3 | 0.00 | 0.24 | 0.13 | 93 | 1005.6 |
| 20260507114337 | 48 | 69 | 1.7 | 4.3 | 0.00 | 0.24 | 0.13 | 93 | 1005.7 |
| 20260507113836 | 48 | 92 | 0.9 | 2.6 | 0.00 | 0.24 | 0.13 | 93 | 1005.7 |
| 20260507113346 | 48 | 92 | 0.9 | 2.6 | 0.00 | 0.24 | 0.13 | 93 | 1005.8 |
| 20260507113158 | 48 | 106 | 0.9 | 2.6 | 0.00 | 0.24 | 0.13 | 93 | 1005.6 |
| 20260507113132 | 48 | 45 | 0.9 | 1.7 | 0.00 | 0.24 | 0.13 | 93 | 1005.7 |
| 20260507112916 | 48 | 104 | 0.9 | 2.6 | 0.00 | 0.24 | 0.13 | 93 | 1005.7 |
| 20260507111800 | 48 | 62 | 0.0 | 1.7 | 0.00 | 0.24 | 0.13 | 93 | 1005.6 |
| 20260507111421 | 48 | 45 | 0.9 | 1.7 | 0.00 | 0.24 | 0.13 | 93 | 1005.6 |
| 20260507110325 | 48 | 65 | 0.0 | 0.9 | 0.00 | 0.24 | 0.13 | 93 | 1005.5 |
| 20260507105832 | 48 | 65 | 0.9 | 3.5 | 0.00 | 0.24 | 0.13 | 93 | 1005.6 |
| 20260507105600 | 48 | 65 | 0.9 | 3.5 | 0.00 | 0.24 | 0.13 | 93 | 1005.4 |
| 20260507105127 | 47 | 281 | 0.0 | 0.0 | 0.02 | 0.24 | 0.13 | 93 | 1005.6 |
| 20260507104847 | 48 | 52 | 0.9 | 3.5 | 0.00 | 0.24 | 0.13 | 93 | 1005.2 |
| 20260507104718 | 47 | 281 | 0.0 | 1.7 | 0.03 | 0.24 | 0.13 | 93 | 1005.7 |
| 20260507104704 | 48 | 82 | 0.9 | 3.5 | 0.01 | 0.24 | 0.13 | 93 | 1005.1 |
| 20260507104031 | 48 | 100 | 0.0 | 2.6 | 0.01 | 0.24 | 0.13 | 93 | 1005.3 |
| 20260507103429 | 48 | 281 | 0.0 | 0.0 | 0.01 | 0.24 | 0.13 | 93 | 1005.4 |
| 20260507102435 | 47 | 281 | 0.0 | 0.0 | 0.02 | 0.24 | 0.13 | 93 | 1005.6 |
| 20260507101326 | 47 | 34 | 0.0 | 1.7 | 0.04 | 0.24 | 0.13 | 93 | 1005.4 |
| 20260507100813 | 47 | 34 | 0.0 | 1.7 | 0.04 | 0.24 | 0.13 | 93 | 1005.3 |
| 20260507100317 | 47 | 35 | 0.0 | 1.7 | 0.05 | 0.24 | 0.13 | 92 | 1005.1 |
| 20260507100034 | 47 | 29 | 0.0 | 1.7 | 0.05 | 0.24 | 0.13 | 92 | 1005.2 |
| 20260507095259 | 47 | 75 | 0.0 | 2.6 | 0.06 | 0.24 | 0.13 | 92 | 1005.2 |
| 20260507095033 | 47 | 77 | 0.0 | 2.6 | 0.07 | 0.24 | 0.12 | 92 | 1005.2 |
| 20260507094304 | 47 | 77 | 0.9 | 5.2 | 0.07 | 0.23 | 0.12 | 92 | 1004.9 |
| 20260507093806 | 47 | 77 | 0.9 | 5.2 | 0.08 | 0.23 | 0.12 | 92 | 1004.9 |
| 20260507093303 | 47 | 64 | 0.9 | 6.1 | 0.09 | 0.23 | 0.11 | 92 | 1004.8 |
| 20260507092800 | 47 | 75 | 1.7 | 6.1 | 0.08 | 0.22 | 0.11 | 92 | 1004.9 |
| 20260507092306 | 47 | 104 | 1.7 | 5.2 | 0.08 | 0.22 | 0.11 | 92 | 1004.8 |
| 20260507091748 | 48 | 77 | 1.7 | 8.7 | 0.07 | 0.21 | 0.09 | 91 | 1004.9 |
| 20260507091254 | 48 | 357 | 1.7 | 8.7 | 0.06 | 0.20 | 0.09 | 91 | 1004.8 |
| 20260507090747 | 48 | 51 | 2.6 | 9.6 | 0.07 | 0.20 | 0.09 | 91 | 1004.8 |
| 20260507090341 | 48 | 99 | 2.6 | 9.6 | 0.06 | 0.19 | 0.08 | 91 | 1004.7 |
| 20260507085745 | 48 | 71 | 2.6 | 9.6 | 0.07 | 0.19 | 0.07 | 91 | 1004.9 |
| 20260507085426 | 48 | 92 | 2.6 | 9.6 | 0.06 | 0.18 | 0.07 | 90 | 1005.2 |
| 20260507084838 | 48 | 71 | 2.6 | 7.0 | 0.05 | 0.17 | 0.05 | 90 | 1005.2 |
| 20260507084038 | 48 | 77 | 1.7 | 5.2 | 0.04 | 0.15 | 0.04 | 89 | 1005.2 |
| 20260507083425 | 48 | 71 | 1.7 | 5.2 | 0.03 | 0.14 | 0.03 | 89 | 1005.2 |
| 20260507083319 | 48 | 92 | 1.7 | 4.3 | 0.03 | 0.14 | 0.03 | 89 | 1005.2 |
| 20260507082408 | 48 | 87 | 1.7 | 5.2 | 0.03 | 0.14 | 0.03 | 88 | 1005.1 |
| 20260507081823 | 49 | 45 | 1.7 | 4.3 | 0.03 | 0.14 | 0.03 | 88 | 1005.1 |
| 20260507080803 | 49 | 52 | 0.9 | 7.0 | 0.02 | 0.13 | 0.02 | 86 | 1004.8 |
| 20260507080541 | 49 | 48 | 1.7 | 7.8 | 0.02 | 0.13 | 0.02 | 85 | 1004.8 |
| 20260507080356 | 49 | 44 | 2.6 | 7.8 | 0.01 | 0.12 | 0.01 | 84 | 1005.1 |
| 20260507080313 | 49 | 48 | 1.7 | 7.8 | 0.02 | 0.13 | 0.02 | 85 | 1004.8 |
| 20260507075237 | 49 | 31 | 2.6 | 11.3 | 0.01 | 0.12 | 0.01 | 84 | 1005.2 |
| 20260507075026 | 50 | 28 | 2.6 | 11.3 | 0.01 | 0.12 | 0.01 | 84 | 1005.1 |
| 20260507074235 | 50 | 44 | 3.5 | 11.3 | 0.00 | 0.11 | 0.00 | 83 | 1004.9 |
| 20260507073744 | 51 | 40 | 3.5 | 11.3 | 0.00 | 0.11 | 0.00 | 81 | 1004.9 |
| 20260507073247 | 51 | 75 | 1.7 | 7.8 | 0.00 | 0.11 | 0.00 | 81 | 1004.7 |
| 20260507073127 | 51 | 110 | 2.6 | 7.8 | 0.00 | 0.11 | 0.00 | 79 | 1004.8 |
| 20260507072239 | 51 | 60 | 2.6 | 7.8 | 0.00 | 0.11 | 0.00 | 78 | 1004.8 |
| 20260507071753 | 51 | 50 | 3.5 | 7.8 | 0.00 | 0.11 | 0.00 | 78 | 1004.7 |
| 20260507071248 | 52 | 21 | 2.6 | 7.8 | 0.00 | 0.11 | 0.00 | 80 | 1004.5 |
| 20260507071005 | 52 | 62 | 1.7 | 4.3 | 0.00 | 0.11 | 0.00 | 81 | 1004.1 |
| 20260507070822 | 52 | 73 | 2.6 | 7.8 | 0.00 | 0.11 | 0.00 | 81 | 1004.1 |
| 20260507065948 | 52 | 70 | 1.7 | 7.8 | 0.00 | 0.11 | 0.00 | 81 | 1004.2 |
| 20260507065331 | 52 | 59 | 2.6 | 7.8 | 0.00 | 0.11 | 0.00 | 82 | 1004.2 |
| 20260507065234 | 52 | 92 | 1.7 | 7.0 | 0.00 | 0.11 | 0.00 | 82 | 1004.0 |
| 20260507064418 | 52 | 72 | 2.6 | 8.7 | 0.00 | 0.11 | 0.00 | 83 | 1004.2 |
| 20260507063553 | 53 | 82 | 2.6 | 8.7 | 0.00 | 0.11 | 0.00 | 85 | 1004.3 |
| 20260507063314 | 53 | 49 | 2.6 | 8.7 | 0.00 | 0.11 | 0.00 | 85 | 1004.2 |
| 20260507062208 | 53 | 12 | 2.6 | 8.7 | 0.00 | 0.11 | 0.00 | 86 | 1004.5 |
| 20260507061724 | 53 | 113 | 1.7 | 8.7 | 0.00 | 0.11 | 0.00 | 86 | 1004.4 |
| 20260507061208 | 53 | 42 | 2.6 | 8.7 | 0.00 | 0.11 | 0.00 | 86 | 1004.3 |
| 20260507060416 | 53 | 67 | 3.5 | 9.6 | 0.00 | 0.11 | 0.00 | 87 | 1004.2 |
| 20260507060242 | 53 | 92 | 2.6 | 9.6 | 0.00 | 0.11 | 0.00 | 87 | 1004.1 |
| 20260507055424 | 53 | 82 | 2.6 | 9.6 | 0.00 | 0.11 | 0.00 | 88 | 1004.3 |
| 20260507054847 | 54 | 36 | 3.5 | 7.8 | 0.00 | 0.11 | 0.00 | 90 | 1004.5 |
| 20260507054723 | 54 | 82 | 2.6 | 9.6 | 0.00 | 0.11 | 0.00 | 89 | 1004.5 |
| 20260507053643 | 54 | 77 | 3.5 | 9.6 | 0.00 | 0.11 | 0.00 | 91 | 1004.4 |
| 20260507053413 | 55 | 92 | 2.6 | 8.7 | 0.00 | 0.11 | 0.00 | 92 | 1004.5 |
| 20260507052652 | 55 | 10 | 2.6 | 7.0 | 0.00 | 0.11 | 0.00 | 92 | 1004.7 |
| 20260507052133 | 55 | 74 | 2.6 | 7.0 | 0.00 | 0.11 | 0.00 | 92 | 1004.9 |
| 20260507051627 | 55 | 67 | 2.6 | 6.1 | 0.00 | 0.11 | 0.00 | 93 | 1004.7 |
| 20260507051135 | 55 | 40 | 1.7 | 3.5 | 0.00 | 0.11 | 0.00 | 93 | 1004.5 |
| 20260507051114 | 56 | 72 | 0.9 | 5.2 | 0.00 | 0.11 | 0.00 | 94 | 1004.3 |
| 20260507051010 | 56 | 68 | 1.7 | 5.2 | 0.00 | 0.11 | 0.00 | 94 | 1004.3 |
| 20260507050739 | 55 | 5 | 1.7 | 5.2 | 0.00 | 0.11 | 0.00 | 93 | 1004.5 |
| 20260507050154 | 56 | 66 | 1.7 | 5.2 | 0.00 | 0.11 | 0.00 | 93 | 1004.4 |
| 20260507045836 | 56 | 55 | 1.7 | 6.1 | 0.00 | 0.11 | 0.00 | 93 | 1004.3 |
| 20260507045235 | 56 | 74 | 1.7 | 6.1 | 0.00 | 0.11 | 0.00 | 93 | 1004.3 |
| 20260507043616 | 56 | 11 | 1.7 | 4.3 | 0.00 | 0.11 | 0.00 | 94 | 1004.4 |
| 20260507043119 | 56 | 60 | 1.7 | 5.2 | 0.00 | 0.11 | 0.00 | 94 | 1004.4 |
| 20260507042622 | 56 | 63 | 1.7 | 5.2 | 0.00 | 0.11 | 0.00 | 94 | 1004.3 |
| 20260507042123 | 57 | 82 | 1.7 | 10.4 | 0.00 | 0.11 | 0.00 | 94 | 1004.3 |
| 20260507041617 | 57 | 78 | 1.7 | 10.4 | 0.00 | 0.11 | 0.00 | 94 | 1004.3 |
| 20260507041118 | 57 | 40 | 2.6 | 10.4 | 0.00 | 0.11 | 0.00 | 94 | 1004.3 |
| 20260507040621 | 57 | 29 | 2.6 | 10.4 | 0.00 | 0.11 | 0.00 | 94 | 1004.5 |
| 20260507040119 | 58 | 42 | 1.7 | 5.2 | 0.00 | 0.11 | 0.00 | 94 | 1004.3 |
| 20260507035601 | 58 | 75 | 1.7 | 3.5 | 0.00 | 0.11 | 0.11 | 95 | 1004.4 |
| 20260507035058 | 58 | 27 | 1.7 | 3.5 | 0.00 | 0.11 | 0.11 | 95 | 1004.4 |
| 20260507034602 | 58 | 6 | 1.7 | 4.3 | 0.00 | 0.11 | 0.11 | 95 | 1004.5 |
| 20260507034217 | 58 | 1 | 0.9 | 5.2 | 0.00 | 0.11 | 0.11 | 95 | 1004.4 |
| 20260507034134 | 58 | 21 | 1.7 | 4.3 | 0.00 | 0.11 | 0.11 | 95 | 1004.5 |
| 20260507033052 | 58 | 285 | 0.9 | 5.2 | 0.00 | 0.11 | 0.11 | 95 | 1004.4 |
| 20260507032916 | 58 | 92 | 0.9 | 4.3 | 0.00 | 0.11 | 0.11 | 95 | 1004.3 |
| 20260507032152 | 58 | 61 | 1.7 | 7.8 | 0.00 | 0.11 | 0.11 | 95 | 1004.2 |
| 20260507031646 | 58 | 6 | 1.7 | 7.8 | 0.00 | 0.11 | 0.11 | 95 | 1004.2 |
| 20260507030558 | 58 | 261 | 0.9 | 7.8 | 0.00 | 0.11 | 0.11 | 95 | 1004.0 |
| 20260507030333 | 58 | 4 | 0.9 | 6.1 | 0.00 | 0.11 | 0.11 | 95 | 1003.9 |
| 20260507030054 | 58 | 4 | 0.9 | 6.1 | 0.00 | 0.11 | 0.11 | 95 | 1003.9 |
| 20260507025558 | 58 | 302 | 1.7 | 6.1 | 0.00 | 0.11 | 0.11 | 95 | 1003.9 |
| 20260507025046 | 58 | 20 | 1.7 | 7.0 | 0.00 | 0.11 | 0.11 | 95 | 1003.9 |
| 20260507024549 | 58 | 223 | 1.7 | 7.0 | 0.00 | 0.11 | 0.11 | 95 | 1004.0 |
| 20260507024044 | 58 | 157 | 0.9 | 6.1 | 0.00 | 0.11 | 0.11 | 95 | 1004.0 |
| 20260507023550 | 58 | 334 | 1.7 | 7.0 | 0.00 | 0.11 | 0.11 | 95 | 1003.8 |
| 20260507023046 | 58 | 273 | 1.7 | 7.0 | 0.00 | 0.11 | 0.11 | 95 | 1003.7 |
| 20260507022541 | 58 | 303 | 1.7 | 5.2 | 0.00 | 0.11 | 0.11 | 95 | 1003.9 |
| 20260507022054 | 58 | 148 | 1.7 | 9.6 | 0.00 | 0.11 | 0.11 | 95 | 1003.9 |
| 20260507021544 | 57 | 92 | 1.7 | 9.6 | 0.00 | 0.11 | 0.11 | 95 | 1003.9 |
| 20260507021043 | 57 | 302 | 1.7 | 9.6 | 0.00 | 0.11 | 0.11 | 95 | 1003.9 |
| 20260507020826 | 57 | 337 | 1.7 | 9.6 | 0.00 | 0.11 | 0.11 | 95 | 1003.8 |
| 20260507020736 | 57 | 252 | 0.9 | 6.1 | 0.00 | 0.11 | 0.11 | 95 | 1003.9 |
| 20260507020511 | 57 | 183 | 0.9 | 5.2 | 0.00 | 0.11 | 0.11 | 95 | 1004.1 |
| 20260507020438 | 57 | 221 | 1.7 | 7.0 | 0.00 | 0.11 | 0.11 | 94 | 1004.1 |
| 20260507014612 | 57 | 324 | 0.9 | 7.0 | 0.00 | 0.11 | 0.11 | 94 | 1004.0 |
| 20260507014050 | 57 | 176 | 1.7 | 7.8 | 0.00 | 0.11 | 0.11 | 94 | 1003.9 |
| 20260507013543 | 57 | 202 | 1.7 | 7.8 | 0.00 | 0.11 | 0.11 | 94 | 1003.7 |
| 20260507013031 | 57 | 337 | 1.7 | 9.6 | 0.00 | 0.11 | 0.11 | 94 | 1003.9 |
| 20260507012529 | 57 | 251 | 1.7 | 9.6 | 0.00 | 0.11 | 0.11 | 94 | 1003.9 |
| 20260507012146 | 57 | 267 | 1.7 | 10.4 | 0.00 | 0.11 | 0.11 | 94 | 1004.1 |
| 20260507012104 | 57 | 269 | 1.7 | 10.4 | 0.00 | 0.11 | 0.11 | 94 | 1004.0 |
| 20260507011709 | 57 | 312 | 2.6 | 10.4 | 0.00 | 0.11 | 0.11 | 94 | 1004.2 |
| 20260507011026 | 57 | 267 | 1.7 | 10.4 | 0.00 | 0.11 | 0.11 | 94 | 1004.1 |
| 20260507010514 | 57 | 56 | 1.7 | 10.4 | 0.00 | 0.11 | 0.11 | 94 | 1004.2 |
| 20260507010235 | 57 | 298 | 2.6 | 11.3 | 0.00 | 0.11 | 0.11 | 94 | 1004.2 |
| 20260507005519 | 57 | 283 | 2.6 | 11.3 | 0.00 | 0.11 | 0.11 | 94 | 1004.3 |
| 20260507005006 | 57 | 325 | 2.6 | 7.8 | 0.00 | 0.11 | 0.11 | 94 | 1004.1 |
| 20260507004516 | 57 | 15 | 2.6 | 7.0 | 0.00 | 0.11 | 0.11 | 94 | 1004.2 |
| 20260507004000 | 57 | 310 | 1.7 | 8.7 | 0.01 | 0.11 | 0.11 | 94 | 1004.1 |
| 20260507003455 | 57 | 281 | 1.7 | 8.7 | 0.01 | 0.11 | 0.11 | 94 | 1004.3 |
| 20260507002954 | 57 | 25 | 0.9 | 7.8 | 0.01 | 0.11 | 0.11 | 94 | 1004.3 |
| 20260507002450 | 57 | 14 | 0.9 | 7.8 | 0.01 | 0.11 | 0.11 | 94 | 1004.2 |
| 20260507001939 | 57 | 237 | 1.7 | 8.7 | 0.02 | 0.11 | 0.11 | 94 | 1004.1 |
| 20260507001436 | 57 | 346 | 2.6 | 8.7 | 0.02 | 0.11 | 0.11 | 94 | 1004.0 |
| 20260507000935 | 58 | 221 | 2.6 | 7.0 | 0.02 | 0.11 | 0.11 | 94 | 1004.0 |
| 20260507000438 | 58 | 281 | 2.6 | 8.7 | 0.03 | 0.11 | 0.11 | 94 | 1003.9 |
| 20260506235922 | 58 | 259 | 2.6 | 8.7 | 0.03 | 0.11 | 0.11 | 94 | 1003.9 |
| 20260506235426 | 58 | 251 | 2.6 | 8.7 | 0.03 | 0.11 | 0.11 | 94 | 1003.8 |
| 20260506234924 | 58 | 314 | 1.7 | 13.0 | 0.03 | 0.11 | 0.11 | 94 | 1003.8 |
| 20260506234443 | 58 | 289 | 1.7 | 13.0 | 0.04 | 0.11 | 0.11 | 94 | 1003.8 |
| 20260506233920 | 58 | 283 | 2.6 | 7.0 | 0.03 | 0.10 | 0.10 | 94 | 1003.8 |
| 20260506233426 | 58 | 283 | 1.7 | 13.0 | 0.03 | 0.10 | 0.10 | 94 | 1003.8 |
| 20260506233048 | 58 | 262 | 2.6 | 14.8 | 0.01 | 0.08 | 0.08 | 93 | 1003.8 |
| 20260506233025 | 58 | 300 | 1.7 | 13.9 | 0.02 | 0.09 | 0.09 | 93 | 1003.7 |
| 20260506232936 | 58 | 272 | 1.7 | 6.1 | 0.03 | 0.10 | 0.10 | 94 | 1003.7 |
| 20260506232551 | 58 | 273 | 1.7 | 13.0 | 0.03 | 0.10 | 0.09 | 93 | 1003.7 |
| 20260506231946 | 58 | 312 | 1.7 | 13.0 | 0.02 | 0.09 | 0.09 | 93 | 1003.7 |
| 20260506231629 | 58 | 272 | 1.7 | 13.9 | 0.02 | 0.09 | 0.09 | 93 | 1003.6 |
| 20260506230146 | 58 | 276 | 2.6 | 14.8 | 0.01 | 0.08 | 0.08 | 93 | 1003.9 |
| 20260506225804 | 58 | 331 | 2.6 | 7.8 | 0.01 | 0.08 | 0.08 | 93 | 1003.8 |
| 20260506225657 | 58 | 203 | 1.7 | 7.8 | 0.01 | 0.08 | 0.08 | 93 | 1003.9 |
| 20260506224650 | 58 | 215 | 2.6 | 7.8 | 0.00 | 0.07 | 0.07 | 93 | 1003.9 |
| 20260506224133 | 58 | 275 | 2.6 | 7.8 | 0.02 | 0.07 | 0.07 | 92 | 1004.1 |
| 20260506224050 | 58 | 283 | 1.7 | 7.8 | 0.00 | 0.07 | 0.07 | 93 | 1003.8 |
| 20260506223954 | 58 | 295 | 1.7 | 6.1 | 0.00 | 0.07 | 0.07 | 93 | 1003.9 |
| 20260506223355 | 59 | 10 | 1.7 | 7.0 | 0.02 | 0.07 | 0.07 | 92 | 1004.1 |
| 20260506223200 | 58 | 256 | 2.6 | 7.8 | 0.01 | 0.07 | 0.07 | 93 | 1003.8 |
| 20260506223151 | 58 | 327 | 2.6 | 7.8 | 0.01 | 0.07 | 0.07 | 93 | 1003.8 |
| 20260506223015 | 58 | 292 | 1.7 | 7.8 | 0.01 | 0.07 | 0.07 | 93 | 1003.9 |
| 20260506221524 | 58 | 111 | 2.6 | 7.8 | 0.01 | 0.07 | 0.07 | 93 | 1003.9 |
| 20260506220449 | 58 | 298 | 2.6 | 7.8 | 0.02 | 0.07 | 0.07 | 92 | 1004.2 |
| 20260506220119 | 59 | 26 | 1.7 | 7.8 | 0.02 | 0.07 | 0.07 | 92 | 1004.2 |
| 20260506214857 | 59 | 267 | 1.7 | 8.7 | 0.02 | 0.07 | 0.07 | 92 | 1004.2 |
| 20260506214438 | 59 | 269 | 2.6 | 13.9 | 0.02 | 0.07 | 0.07 | 92 | 1004.2 |
| 20260506214356 | 59 | 261 | 1.7 | 7.8 | 0.02 | 0.07 | 0.07 | 92 | 1004.2 |
| 20260506213353 | 59 | 302 | 2.6 | 13.9 | 0.02 | 0.07 | 0.07 | 92 | 1004.2 |
| 20260506212851 | 59 | 323 | 3.5 | 11.3 | 0.01 | 0.06 | 0.06 | 92 | 1004.4 |
| 20260506212351 | 59 | 237 | 3.5 | 11.3 | 0.01 | 0.06 | 0.06 | 91 | 1004.4 |
| 20260506211915 | 59 | 320 | 2.6 | 9.6 | 0.02 | 0.06 | 0.06 | 91 | 1004.5 |
| 20260506211836 | 59 | 310 | 2.6 | 8.7 | 0.02 | 0.06 | 0.05 | 91 | 1004.6 |
| 20260506211101 | 59 | 286 | 1.7 | 8.7 | 0.01 | 0.05 | 0.05 | 91 | 1004.5 |
| 20260506210342 | 59 | 246 | 1.7 | 8.7 | 0.01 | 0.05 | 0.05 | 91 | 1004.5 |
| 20260506205832 | 59 | 356 | 2.6 | 8.7 | 0.01 | 0.05 | 0.05 | 91 | 1004.4 |
| 20260506205623 | 59 | 183 | 2.6 | 7.0 | 0.01 | 0.05 | 0.05 | 91 | 1004.6 |
| 20260506205339 | 59 | 257 | 2.6 | 7.0 | 0.01 | 0.05 | 0.05 | 91 | 1004.6 |
| 20260506204957 | 59 | 263 | 2.6 | 7.0 | 0.01 | 0.05 | 0.05 | 91 | 1004.6 |
| 20260506203821 | 59 | 264 | 2.6 | 7.8 | 0.01 | 0.05 | 0.05 | 90 | 1004.7 |
| 20260506203335 | 59 | 219 | 1.7 | 7.8 | 0.02 | 0.05 | 0.05 | 90 | 1004.6 |
| 20260506202829 | 59 | 296 | 1.7 | 8.7 | 0.02 | 0.05 | 0.05 | 90 | 1004.8 |
| 20260506202324 | 59 | 320 | 1.7 | 8.7 | 0.03 | 0.05 | 0.04 | 90 | 1004.8 |
| 20260506201821 | 59 | 352 | 1.7 | 8.7 | 0.02 | 0.04 | 0.04 | 90 | 1004.9 |
| 20260506201608 | 60 | 305 | 1.7 | 7.0 | 0.02 | 0.04 | 0.04 | 89 | 1004.9 |
| 20260506201407 | 60 | 304 | 1.7 | 8.7 | 0.02 | 0.04 | 0.04 | 89 | 1004.9 |
| 20260506200545 | 60 | 345 | 2.6 | 8.7 | 0.03 | 0.04 | 0.04 | 89 | 1004.9 |
| 20260506195812 | 60 | 218 | 2.6 | 7.8 | 0.03 | 0.04 | 0.04 | 88 | 1004.8 |
| 20260506195317 | 60 | 271 | 2.6 | 9.6 | 0.03 | 0.04 | 0.04 | 88 | 1004.8 |
| 20260506194819 | 60 | 285 | 1.7 | 9.6 | 0.04 | 0.04 | 0.04 | 89 | 1004.8 |
| 20260506194304 | 60 | 282 | 1.7 | 6.1 | 0.04 | 0.04 | 0.04 | 88 | 1004.9 |
| 20260506193758 | 60 | 335 | 2.6 | 6.1 | 0.04 | 0.04 | 0.04 | 88 | 1004.7 |
| 20260506193258 | 60 | 268 | 1.7 | 6.1 | 0.03 | 0.03 | 0.03 | 87 | 1004.8 |
| 20260506192753 | 60 | 235 | 1.7 | 6.1 | 0.03 | 0.03 | 0.03 | 86 | 1004.9 |
| 20260506192305 | 61 | 279 | 1.7 | 12.2 | 0.02 | 0.02 | 0.02 | 85 | 1005.2 |
| 20260506192029 | 61 | 293 | 1.7 | 12.2 | 0.02 | 0.02 | 0.02 | 85 | 1005.1 |
| 20260506191306 | 61 | 251 | 2.6 | 12.2 | 0.02 | 0.02 | 0.02 | 84 | 1005.1 |
| 20260506190758 | 61 | 27 | 1.7 | 12.2 | 0.02 | 0.02 | 0.02 | 82 | 1005.1 |
| 20260506190318 | 62 | 279 | 2.6 | 9.6 | 0.01 | 0.01 | 0.01 | 81 | 1005.2 |
| 20260506190036 | 62 | 202 | 3.5 | 10.4 | 0.01 | 0.01 | 0.01 | 79 | 1005.2 |
| 20260506185720 | 64 | 308 | 2.6 | 10.4 | 0.00 | 0.00 | 0.00 | 76 | 1005.3 |
| 20260506185627 | 63 | 271 | 2.6 | 10.4 | 0.01 | 0.01 | 0.00 | 77 | 1005.3 |
| 20260506184252 | 64 | 318 | 2.6 | 10.4 | 0.00 | 0.00 | 0.00 | 74 | 1005.4 |
| 20260506183740 | 65 | 168 | 2.6 | 10.4 | 0.00 | 0.00 | 0.00 | 73 | 1005.3 |
| 20260506183245 | 65 | 121 | 1.7 | 10.4 | 0.00 | 0.00 | 0.00 | 72 | 1005.3 |
| 20260506182743 | 66 | 260 | 2.6 | 10.4 | 0.00 | 0.00 | 0.00 | 72 | 1005.3 |
| 20260506182235 | 66 | 312 | 3.5 | 10.4 | 0.00 | 0.00 | 0.00 | 70 | 1005.4 |
| 20260506181807 | 67 | 6 | 2.6 | 10.4 | 0.00 | 0.00 | 0.00 | 68 | 1005.3 |
| 20260506181302 | 68 | 220 | 1.7 | 7.0 | 0.00 | 0.00 | 0.00 | 66 | 1005.5 |
| 20260506180831 | 68 | 308 | 2.6 | 12.2 | 0.00 | 0.00 | 0.00 | 64 | 1005.5 |
| 20260506180813 | 67 | 294 | 3.5 | 13.9 | 0.00 | 0.00 | 0.00 | 66 | 1005.5 |
| 20260506180408 | 68 | 258 | 4.3 | 13.9 | 0.00 | 0.00 | 0.00 | 65 | 1005.4 |
| 20260506175418 | 71 | 210 | 3.5 | 15.6 | 0.00 | 0.00 | 0.00 | 60 | 1005.8 |
| 20260506175412 | 70 | 60 | 4.3 | 12.2 | 0.00 | 0.00 | 0.00 | 59 | 1005.9 |
| 20260506175258 | 69 | 161 | 3.5 | 12.2 | 0.00 | 0.00 | 0.00 | 63 | 1005.5 |
| 20260506174924 | 69 | 277 | 3.5 | 13.9 | 0.00 | 0.00 | 0.00 | 61 | 1005.4 |
| 20260506174910 | 71 | 294 | 3.5 | 14.8 | 0.00 | 0.00 | 0.00 | 60 | 1005.6 |
| 20260506174816 | 69 | 190 | 4.3 | 13.9 | 0.00 | 0.00 | 0.00 | 61 | 1005.6 |
| 20260506174748 | 71 | 284 | 4.3 | 14.8 | 0.00 | 0.00 | 0.00 | 58 | 1005.7 |
| 20260506174725 | 71 | 308 | 3.5 | 14.8 | 0.00 | 0.00 | 0.00 | 58 | 1005.7 |
| 20260506174711 | 72 | 303 | 3.5 | 10.4 | 0.00 | 0.00 | 0.00 | 57 | 1005.8 |
| 20260506174705 | 72 | 281 | 3.5 | 15.6 | 0.00 | 0.00 | 0.00 | 59 | 1005.6 |
| 20260506173944 | 70 | 34 | 3.5 | 13.9 | 0.00 | 0.00 | 0.00 | 61 | 1005.5 |
| 20260506173326 | 70 | 252 | 3.5 | 13.9 | 0.00 | 0.00 | 0.00 | 59 | 1005.7 |
| 20260506172342 | 70 | 306 | 4.3 | 14.8 | 0.00 | 0.00 | 0.00 | 59 | 1005.5 |
| 20260506170323 | 72 | 275 | 3.5 | 10.4 | 0.00 | 0.00 | 0.00 | 56 | 1005.7 |
| 20260506165950 | 72 | 354 | 4.3 | 10.4 | 0.00 | 0.00 | 0.00 | 56 | 1005.4 |
| 20260506164044 | 70 | 21 | 4.3 | 13.9 | 0.00 | 0.00 | 0.00 | 60 | 1006.2 |
| 20260506163801 | 70 | 225 | 3.5 | 11.3 | 0.00 | 0.00 | 0.00 | 59 | 1006.0 |
| 20260506163415 | 71 | 347 | 3.5 | 14.8 | 0.00 | 0.00 | 0.00 | 59 | 1006.1 |
| 20260506162749 | 70 | 92 | 4.3 | 14.8 | 0.00 | 0.00 | 0.00 | 58 | 1006.1 |
| 20260506161652 | 71 | 319 | 3.5 | 13.9 | 0.00 | 0.00 | 0.00 | 59 | 1006.2 |
| 20260506161211 | 70 | 205 | 3.5 | 15.6 | 0.00 | 0.00 | 0.00 | 59 | 1006.3 |
| 20260506160700 | 70 | 301 | 3.5 | 15.6 | 0.00 | 0.00 | 0.00 | 59 | 1006.3 |
| 20260506160205 | 70 | 254 | 3.5 | 13.0 | 0.00 | 0.00 | 0.00 | 60 | 1006.5 |
| 20260506155650 | 70 | 268 | 3.5 | 13.0 | 0.00 | 0.00 | 0.00 | 60 | 1006.5 |
| 20260506155143 | 70 | 225 | 2.6 | 13.0 | 0.00 | 0.00 | 0.00 | 60 | 1006.5 |
| 20260506155000 | 70 | 202 | 2.6 | 11.3 | 0.00 | 0.00 | 0.00 | 61 | 1006.6 |
| 20260506154146 | 69 | 256 | 3.5 | 11.3 | 0.00 | 0.00 | 0.00 | 62 | 1006.7 |
| 20260506153650 | 69 | 244 | 3.5 | 13.0 | 0.00 | 0.00 | 0.00 | 62 | 1006.7 |
| 20260506153145 | 69 | 142 | 3.5 | 13.0 | 0.00 | 0.00 | 0.00 | 63 | 1006.8 |
| 20260506152640 | 69 | 250 | 3.5 | 13.0 | 0.00 | 0.00 | 0.00 | 62 | 1006.9 |
| 20260506152138 | 70 | 333 | 3.5 | 13.0 | 0.00 | 0.00 | 0.00 | 61 | 1007.0 |
| 20260506151626 | 70 | 262 | 3.5 | 11.3 | 0.00 | 0.00 | 0.00 | 63 | 1007.0 |
| 20260506151137 | 69 | 337 | 3.5 | 8.7 | 0.00 | 0.00 | 0.00 | 62 | 1007.0 |
| 20260506150632 | 69 | 350 | 3.5 | 8.7 | 0.00 | 0.00 | 0.00 | 63 | 1007.1 |
| 20260506150132 | 69 | 214 | 2.6 | 8.7 | 0.00 | 0.00 | 0.00 | 63 | 1007.1 |
| 20260506145629 | 69 | 254 | 2.6 | 8.7 | 0.00 | 0.00 | 0.00 | 63 | 1007.1 |